• Em Portugal
  • Lista de países
  • Para 7 dias
  • Temperatura da água
  • Mapas de satélite
  • Mapa do tempo
  • Widgets de tempo
  • user-avatar
    Iniciar Sessão

    Previsão horária em Dvor-Lyudchicy

    Hoje, 20 Julho, Sexta-feira

    Tempo Temperatura Precipitação Vento Pressão Humidade
    00:00 +18°C° 0 mm 2 m/s 736 mmHg 97%
    01:00 +17°C° 0 mm 2 m/s 736 mmHg 97%
    02:00 +17°C° 0 mm 2 m/s 736 mmHg 97%
    03:00 +17°C° 0 mm 2 m/s 736 mmHg 98%
    04:00 +17°C° 0 mm 2 m/s 736 mmHg 98%
    05:00 +17°C° 0 mm 2 m/s 736 mmHg 98%
    06:00 +18°C° 0 mm 2 m/s 736 mmHg 95%
    07:00 +19°C° 0 mm 2 m/s 736 mmHg 91%
    08:00 +21°C° 0 mm 3 m/s 737 mmHg 87%
    09:00 +22°C° 0,3 mm 3 m/s 737 mmHg 83%
    10:00 +24°C° 0,3 mm 3 m/s 736 mmHg 79%
    11:00 +25°C° 0,3 mm 3 m/s 736 mmHg 75%
    12:00 +25°C° 1 mm 3 m/s 736 mmHg 74%
    13:00 +26°C° 1 mm 3 m/s 736 mmHg 73%
    14:00 +26°C° 1 mm 3 m/s 736 mmHg 73%
    15:00 +26°C° 0,7 mm 3 m/s 736 mmHg 74%
    16:00 +26°C° 0,7 mm 3 m/s 736 mmHg 75%
    17:00 +26°C° 0,7 mm 3 m/s 736 mmHg 77%
    18:00 +24°C° 0,5 mm 2 m/s 736 mmHg 82%
    19:00 +23°C° 0,5 mm 2 m/s 736 mmHg 87%
    20:00 +21°C° 0,5 mm 2 m/s 736 mmHg 92%
    21:00 +20°C° 0 mm 2 m/s 736 mmHg 93%
    22:00 +20°C° 0 mm 2 m/s 736 mmHg 94%
    23:00 +19°C° 0 mm 2 m/s 736 mmHg 95%

    Amanhã, 21 Julho, Sábado

    Tempo Temperatura Precipitação Vento Pressão Humidade
    00:00 +19°C° 0 mm 2 m/s 736 mmHg 96%
    01:00 +18°C° 0 mm 2 m/s 736 mmHg 96%
    02:00 +18°C° 0 mm 2 m/s 736 mmHg 97%
    03:00 +18°C° 0 mm 2 m/s 736 mmHg 97%
    04:00 +18°C° 0 mm 2 m/s 736 mmHg 97%
    05:00 +18°C° 0 mm 2 m/s 736 mmHg 98%
    06:00 +19°C° 0,1 mm 2 m/s 736 mmHg 95%
    07:00 +20°C° 0,1 mm 2 m/s 736 mmHg 93%
    08:00 +21°C° 0,1 mm 2 m/s 737 mmHg 91%
    09:00 +23°C° 0,1 mm 2 m/s 737 mmHg 88%
    10:00 +23°C° 0,1 mm 2 m/s 737 mmHg 86%
    11:00 +24°C° 0,1 mm 3 m/s 737 mmHg 83%
    12:00 +25°C° 0,4 mm 3 m/s 737 mmHg 81%
    13:00 +25°C° 0,4 mm 3 m/s 737 mmHg 79%
    14:00 +26°C° 0,4 mm 3 m/s 736 mmHg 77%
    15:00 +25°C° 0,8 mm 3 m/s 736 mmHg 79%
    16:00 +25°C° 0,8 mm 3 m/s 736 mmHg 80%
    17:00 +25°C° 0,8 mm 2 m/s 736 mmHg 82%
    18:00 +24°C° 1,5 mm 2 m/s 736 mmHg 86%
    19:00 +23°C° 1,5 mm 2 m/s 736 mmHg 89%
    20:00 +21°C° 1,5 mm 2 m/s 736 mmHg 92%
    21:00 +20°C° 0,3 mm 2 m/s 736 mmHg 94%
    22:00 +20°C° 0,3 mm 2 m/s 736 mmHg 95%
    23:00 +20°C° 0,3 mm 2 m/s 736 mmHg 96%

    Depois de amanhã, 22 Julho, Domingo

    Tempo Temperatura Precipitação Vento Pressão Humidade
    00:00 +19°C° 0,7 mm 2 m/s 736 mmHg 97%
    01:00 +19°C° 0,7 mm 2 m/s 736 mmHg 97%
    02:00 +19°C° 0,7 mm 2 m/s 736 mmHg 97%
    03:00 +19°C° 1 mm 2 m/s 736 mmHg 98%
    04:00 +19°C° 1 mm 3 m/s 736 mmHg 98%
    05:00 +19°C° 1 mm 3 m/s 736 mmHg 98%
    06:00 +19°C° 1,1 mm 3 m/s 736 mmHg 97%
    07:00 +19°C° 1,1 mm 3 m/s 736 mmHg 97%
    08:00 +19°C° 1,1 mm 4 m/s 736 mmHg 96%
    09:00 +20°C° 0,7 mm 4 m/s 736 mmHg 95%
    10:00 +20°C° 0,7 mm 4 m/s 736 mmHg 94%
    11:00 +20°C° 0,7 mm 4 m/s 736 mmHg 93%
    12:00 +21°C° 0,3 mm 5 m/s 736 mmHg 92%
    13:00 +21°C° 0,3 mm 5 m/s 736 mmHg 91%
    14:00 +21°C° 0,3 mm 5 m/s 736 mmHg 90%
    15:00 +21°C° 0,1 mm 5 m/s 736 mmHg 89%
    16:00 +21°C° 0,1 mm 5 m/s 736 mmHg 89%
    17:00 +20°C° 0,1 mm 5 m/s 736 mmHg 89%
    18:00 +20°C° 0,1 mm 4 m/s 736 mmHg 90%
    19:00 +19°C° 0,1 mm 4 m/s 736 mmHg 91%
    20:00 +19°C° 0,1 mm 4 m/s 736 mmHg 92%
    21:00 +18°C° 0,1 mm 4 m/s 736 mmHg 92%
    22:00 +18°C° 0,1 mm 3 m/s 736 mmHg 93%
    23:00 +18°C° 0,1 mm 3 m/s 736 mmHg 94%

    23 Julho, Segunda-feira

    Tempo Temperatura Precipitação Vento Pressão Humidade
    00:00 +18°C° 0,2 mm 4 m/s 736 mmHg 95%
    01:00 +18°C° 0,2 mm 4 m/s 736 mmHg 96%
    02:00 +18°C° 0,2 mm 4 m/s 736 mmHg 96%
    03:00 +18°C° 0,5 mm 4 m/s 736 mmHg 96%
    04:00 +18°C° 0,5 mm 4 m/s 736 mmHg 96%
    05:00 +18°C° 0,5 mm 4 m/s 736 mmHg 97%
    06:00 +18°C° 0,4 mm 4 m/s 736 mmHg 96%
    07:00 +19°C° 0,4 mm 4 m/s 736 mmHg 95%
    08:00 +19°C° 0,4 mm 4 m/s 736 mmHg 95%
    09:00 +19°C° 0,4 mm 4 m/s 736 mmHg 93%
    10:00 +19°C° 0,4 mm 5 m/s 736 mmHg 92%
    11:00 +19°C° 0,4 mm 5 m/s 737 mmHg 91%
    12:00 +19°C° 0,1 mm 5 m/s 737 mmHg 89%
    13:00 +20°C° 0,1 mm 5 m/s 737 mmHg 86%
    14:00 +20°C° 0,1 mm 5 m/s 737 mmHg 83%
    15:00 +20°C° 0 mm 5 m/s 737 mmHg 82%
    16:00 +20°C° 0 mm 5 m/s 737 mmHg 80%
    17:00 +20°C° 0 mm 5 m/s 737 mmHg 79%
    18:00 +20°C° 0 mm 4 m/s 737 mmHg 82%
    19:00 +19°C° 0 mm 3 m/s 737 mmHg 85%
    20:00 +18°C° 0 mm 3 m/s 737 mmHg 89%
    21:00 +18°C° 0 mm 3 m/s 737 mmHg 90%
    22:00 +17°C° 0 mm 3 m/s 737 mmHg 92%
    23:00 +17°C° 0 mm 3 m/s 738 mmHg 94%

    24 Julho, Terça-feira

    Tempo Temperatura Precipitação Vento Pressão Humidade
    00:00 +17°C° 0 mm 3 m/s 738 mmHg 94%
    01:00 +16°C° 0 mm 3 m/s 738 mmHg 95%
    02:00 +16°C° 0 mm 3 m/s 737 mmHg 95%
    03:00 +16°C° 0 mm 3 m/s 738 mmHg 95%
    04:00 +16°C° 0 mm 3 m/s 738 mmHg 94%
    05:00 +16°C° 0 mm 3 m/s 738 mmHg 94%
    06:00 +17°C° 0,1 mm 3 m/s 738 mmHg 92%
    07:00 +18°C° 0,1 mm 3 m/s 738 mmHg 91%
    08:00 +19°C° 0,1 mm 3 m/s 739 mmHg 89%
    09:00 +20°C° 0,2 mm 3 m/s 739 mmHg 87%
    10:00 +21°C° 0,2 mm 3 m/s 739 mmHg 85%
    11:00 +22°C° 0,2 mm 3 m/s 739 mmHg 83%
    12:00 +22°C° 0,1 mm 3 m/s 739 mmHg 81%
    13:00 +24°C° 0,1 mm 3 m/s 739 mmHg 79%
    14:00 +25°C° 0,1 mm 2 m/s 739 mmHg 77%
    15:00 +24°C° 0,3 mm 2 m/s 739 mmHg 78%
    16:00 +24°C° 0,3 mm 2 m/s 739 mmHg 80%
    17:00 +24°C° 0,3 mm 2 m/s 739 mmHg 81%
    18:00 +23°C° 0,1 mm 2 m/s 739 mmHg 84%
    19:00 +21°C° 0,1 mm 2 m/s 739 mmHg 88%
    20:00 +21°C° 0,1 mm 2 m/s 739 mmHg 91%
    21:00 +20°C° 0,1 mm 2 m/s 739 mmHg 93%
    22:00 +20°C° 0,1 mm 1 m/s 740 mmHg 94%
    23:00 +19°C° 0,1 mm 1 m/s 740 mmHg 95%

    25 Julho, Quarta-feira

    Tempo Temperatura Precipitação Vento Pressão Humidade
    00:00 +19°C° 0 mm 1 m/s 740 mmHg 95%
    01:00 +18°C° 0 mm 2 m/s 740 mmHg 96%
    02:00 +18°C° 0 mm 2 m/s 740 mmHg 96%
    03:00 +17°C° 0 mm 2 m/s 740 mmHg 97%
    04:00 +18°C° 0 mm 1 m/s 740 mmHg 97%
    05:00 +18°C° 0 mm 1 m/s 740 mmHg 97%
    06:00 +20°C° 0 mm 1 m/s 740 mmHg 93%
    07:00 +21°C° 0 mm 1 m/s 741 mmHg 90%
    08:00 +22°C° 0 mm 1 m/s 741 mmHg 86%
    09:00 +23°C° 0,2 mm 1 m/s 741 mmHg 83%
    10:00 +24°C° 0,2 mm 2 m/s 741 mmHg 80%
    11:00 +25°C° 0,2 mm 2 m/s 741 mmHg 77%
    12:00 +26°C° 0,9 mm 2 m/s 741 mmHg 76%
    13:00 +26°C° 0,9 mm 2 m/s 741 mmHg 75%
    14:00 +26°C° 0,9 mm 2 m/s 740 mmHg 74%
    15:00 +26°C° 0,9 mm 2 m/s 740 mmHg 76%
    16:00 +26°C° 0,9 mm 2 m/s 740 mmHg 78%
    17:00 +26°C° 0,9 mm 2 m/s 740 mmHg 81%
    18:00 +25°C° 1 mm 2 m/s 741 mmHg 85%
    19:00 +23°C° 1 mm 2 m/s 741 mmHg 89%
    20:00 +21°C° 1 mm 2 m/s 741 mmHg 93%
    21:00 +20°C° 0,4 mm 2 m/s 741 mmHg 94%
    22:00 +20°C° 0,4 mm 2 m/s 741 mmHg 95%
    23:00 +19°C° 0,4 mm 2 m/s 741 mmHg 96%
    Mostrar mais